timestamp,surface_pressure_avg,surface_temp_avg,battery_voltage,lat,long
2020-10-18 00:09:01+00:00,362.638,13.07,12.81,47.84626,-54.09684
2020-10-18 00:19:01+00:00,363.8829,13.04,12.81,47.84626,-54.09684
2020-10-18 00:29:01+00:00,360.6713,13.07,12.81,47.84626,-54.09684
2020-10-18 00:39:01+00:00,359.7847,13.05,12.81,47.84626,-54.09684
2020-10-18 00:49:01+00:00,362.5612,13.02,12.81,47.84626,-54.09684
2020-10-18 00:59:01+00:00,360.0262,13.04,12.81,47.84626,-54.09684
2020-10-18 01:09:01+00:00,353.4996,13.05,12.81,47.84626,-54.09684
2020-10-18 01:19:01+00:00,351.0679,13.05,12.81,47.84626,-54.09684
2020-10-18 01:29:01+00:00,348.2713,13.05,12.81,47.84626,-54.09684
2020-10-18 01:39:01+00:00,341.173,13.06,12.81,47.84626,-54.09684
2020-10-18 01:49:01+00:00,338.1597,13.02,12.81,47.84626,-54.09684
2020-10-18 01:59:01+00:00,334.4196,13.0,12.81,47.84626,-54.09684
2020-10-18 02:09:01+00:00,326.463,13.03,12.81,47.84626,-54.09684
2020-10-18 02:19:01+00:00,317.0231,13.08,12.73,47.84626,-54.09684
2020-10-18 02:29:01+00:00,310.1512,13.1,12.73,47.84626,-54.09684
2020-10-18 02:39:01+00:00,300.638,13.1,12.73,47.84626,-54.09684
2020-10-18 02:49:01+00:00,288.1997,13.1,12.73,47.84626,-54.09684
2020-10-18 02:59:01+00:00,275.183,13.1,12.73,47.84626,-54.09684
2020-10-18 03:09:01+00:00,265.2514,13.1,12.73,47.84626,-54.09684
2020-10-18 03:19:01+00:00,255.3914,13.1,12.73,47.84626,-54.09684
2020-10-18 03:29:01+00:00,243.5681,13.1,12.73,47.84626,-54.09684
2020-10-18 03:39:01+00:00,232.2781,13.1,12.73,47.84626,-54.09684
2020-10-18 03:49:01+00:00,221.6248,13.1,12.73,47.84626,-54.09684
2020-10-18 03:59:01+00:00,211.4681,13.1,12.73,47.84626,-54.09684
2020-10-18 04:09:01+00:00,203.6414,13.1,12.73,47.84626,-54.09684
2020-10-18 04:19:01+00:00,194.7648,13.1,12.73,47.84626,-54.09684
2020-10-18 04:29:01+00:00,184.3348,13.1,12.73,47.84626,-54.09684
2020-10-18 04:39:01+00:00,176.4981,13.1,12.73,47.84626,-54.09684
2020-10-18 04:49:01+00:00,168.2665,13.12,12.73,47.84626,-54.09684
2020-10-18 04:59:01+00:00,161.0565,13.16,12.73,47.84626,-54.09684
2020-10-18 05:09:01+00:00,158.4249,13.17,12.73,47.84626,-54.09684
2020-10-18 05:19:01+00:00,154.5298,13.19,12.73,47.84626,-54.09684
2020-10-18 05:29:01+00:00,146.9632,13.28,12.73,47.84626,-54.09684
2020-10-18 05:39:01+00:00,143.5415,13.3,12.73,47.84626,-54.09684
2020-10-18 05:49:01+00:00,144.6281,13.3,12.73,47.84626,-54.09684
2020-10-18 05:59:01+00:00,141.9082,13.3,12.73,47.84626,-54.09684
2020-10-18 06:09:01+00:00,140.0965,13.3,12.73,47.84626,-54.09684
2020-10-18 06:19:01+00:00,143.6432,13.3,12.73,47.84626,-54.09684
2020-10-18 06:29:01+00:00,146.3782,13.3,12.73,47.84626,-54.09684
2020-10-18 06:39:01+00:00,145.5699,13.3,12.73,47.84626,-54.09684
2020-10-18 06:49:01+00:00,145.5416,13.3,12.73,47.84626,-54.09684
2020-10-18 06:59:01+00:00,149.4632,13.3,12.73,47.84626,-54.09684
2020-10-18 07:09:01+00:00,153.6115,13.3,12.73,47.84626,-54.09684
2020-10-18 07:19:01+00:00,156.3698,13.3,12.73,47.84626,-54.09684
2020-10-18 07:29:01+00:00,160.0099,13.3,12.73,47.84626,-54.09684
2020-10-18 07:39:01+00:00,166.8348,13.29,12.73,47.84626,-54.09684
2020-10-18 07:49:01+00:00,174.2781,13.26,12.73,47.84626,-54.09684
2020-10-18 07:59:01+00:00,178.4731,13.26,12.73,47.84626,-54.09684
2020-10-18 08:09:01+00:00,182.9248,13.22,12.73,47.84626,-54.09684
2020-10-18 08:19:01+00:00,191.0665,13.2,12.73,47.84626,-54.09684
2020-10-18 08:29:01+00:00,198.0164,13.22,12.73,47.84626,-54.09684
2020-10-18 08:39:01+00:00,202.6981,13.27,12.73,47.84626,-54.09684
2020-10-18 08:49:01+00:00,208.4481,13.29,12.73,47.84626,-54.09684
2020-10-18 08:59:01+00:00,214.4747,13.29,12.73,47.84626,-54.09684
2020-10-18 09:09:01+00:00,221.9831,13.3,12.73,47.84626,-54.09684
2020-10-18 09:19:01+00:00,230.2914,13.3,12.65,47.84626,-54.09684
2020-10-18 09:29:01+00:00,236.5014,13.3,12.65,47.84626,-54.09684
2020-10-18 09:39:01+00:00,243.9931,13.3,12.65,47.84626,-54.09684
2020-10-18 09:49:01+00:00,254.2481,13.3,12.65,47.84626,-54.09684
2020-10-18 09:59:01+00:00,261.748,13.3,12.65,47.84626,-54.09684
2020-10-18 10:09:01+00:00,269.6314,13.29,12.65,47.84626,-54.09684
2020-10-18 10:19:01+00:00,280.71299999999997,13.2,12.65,47.84626,-54.09684
2020-10-18 10:29:01+00:00,296.2546,13.2,12.65,47.84626,-54.09684
2020-10-18 10:39:01+00:00,306.7796,13.2,12.65,47.84626,-54.09684
2020-10-18 10:49:01+00:00,317.1747,13.2,12.65,47.84626,-54.09684
2020-10-18 10:59:01+00:00,329.7546,13.1,12.65,47.84626,-54.09684
2020-10-18 11:09:01+00:00,339.6380000000001,13.1,12.65,47.84626,-54.09684
2020-10-18 11:19:01+00:00,347.5511,13.1,12.65,47.84626,-54.09684
2020-10-18 11:29:01+00:00,354.5714,13.1,12.65,47.84626,-54.09684
2020-10-18 11:39:01+00:00,361.2913,13.1,12.65,47.84626,-54.09684
2020-10-18 11:49:01+00:00,365.6346,13.1,12.65,47.84626,-54.09684
2020-10-18 11:59:01+00:00,367.6945,13.1,12.65,47.84626,-54.09684
2020-10-18 12:09:01+00:00,370.6445,13.11,12.65,47.84626,-54.09684
2020-10-18 12:19:01+00:00,374.62300000000016,13.14,12.73,47.84626,-54.09684
2020-10-18 12:29:01+00:00,376.718,13.14,12.73,47.84626,-54.09684
2020-10-18 12:39:01+00:00,378.3044,13.16,12.73,47.84626,-54.09684
2020-10-18 12:49:01+00:00,379.3029,13.17,12.73,47.84626,-54.09684
2020-10-18 12:59:01+00:00,377.6746,13.18,12.73,47.84626,-54.09684
2020-10-18 13:09:01+00:00,374.6247,13.19,12.73,47.84626,-54.09684
2020-10-18 13:19:01+00:00,372.3613,13.18,12.81,47.84626,-54.09684
2020-10-18 13:29:01+00:00,368.448,13.18,12.81,47.84626,-54.09684
2020-10-18 13:39:01+00:00,363.3462,13.17,12.81,47.84626,-54.09684
2020-10-18 13:49:01+00:00,360.2562,13.11,12.81,47.84626,-54.09684
2020-10-18 13:59:01+00:00,354.2712,13.11,12.81,47.84626,-54.09684
2020-10-18 14:09:01+00:00,347.1262,13.15,12.81,47.84626,-54.09684
2020-10-18 14:19:01+00:00,340.2863,13.17,12.97,47.84626,-54.09684
2020-10-18 14:29:01+00:00,335.0779,13.17,12.97,47.84626,-54.09684
2020-10-18 14:39:01+00:00,327.2563,13.18,12.97,47.84626,-54.09684
2020-10-18 14:49:01+00:00,318.733,13.19,12.97,47.84626,-54.09684
2020-10-18 14:59:01+00:00,311.3197,13.18,12.97,47.84626,-54.09684
2020-10-18 15:09:01+00:00,301.3947,13.19,12.97,47.84626,-54.09684
2020-10-18 15:19:01+00:00,285.1714,13.2,13.13,47.84626,-54.09684
2020-10-18 15:29:01+00:00,272.2831,13.2,13.13,47.84626,-54.09684
2020-10-18 15:39:01+00:00,265.6447,13.2,13.13,47.84626,-54.09684
2020-10-18 15:49:01+00:00,253.2764,13.2,13.13,47.84626,-54.09684
2020-10-18 15:59:01+00:00,237.8231,13.27,13.13,47.84626,-54.09684
2020-10-18 16:09:01+00:00,225.5231,13.28,13.13,47.84626,-54.09684
2020-10-18 16:19:01+00:00,215.4231,13.28,13.37,47.84626,-54.09684
2020-10-18 16:29:01+00:00,202.1598,13.3,13.37,47.84626,-54.09684
2020-10-18 16:39:01+00:00,189.8731,13.3,13.37,47.84626,-54.09684
2020-10-18 16:49:01+00:00,182.6548,13.3,13.37,47.84626,-54.09684
2020-10-18 16:59:01+00:00,175.1615,13.3,13.37,47.84626,-54.09684
2020-10-18 17:09:01+00:00,166.9048,13.3,13.37,47.84626,-54.09684
2020-10-18 17:19:01+00:00,160.7515,13.3,13.29,47.84626,-54.09684
2020-10-18 17:29:01+00:00,154.2782,13.3,13.29,47.84626,-54.09684
2020-10-18 17:39:01+00:00,148.4348,13.3,13.29,47.84626,-54.09684
2020-10-18 17:49:01+00:00,144.9515,13.3,13.29,47.84626,-54.09684
2020-10-18 17:59:01+00:00,140.5482,13.33,13.29,47.84626,-54.09684
2020-10-18 18:09:01+00:00,136.6282,13.37,13.29,47.84626,-54.09684
2020-10-18 18:19:01+00:00,135.5115,13.38,13.37,47.84626,-54.09684
2020-10-18 18:29:01+00:00,136.1949,13.4,13.37,47.84626,-54.09684
2020-10-18 18:39:01+00:00,135.6699,13.4,13.37,47.84626,-54.09684
2020-10-18 18:49:01+00:00,134.3182,13.4,13.37,47.84626,-54.09684
2020-10-18 18:59:01+00:00,137.6582,13.44,13.37,47.84626,-54.09684
2020-10-18 19:09:01+00:00,141.3749,13.45,13.37,47.84626,-54.09684
2020-10-18 19:19:01+00:00,141.0449,13.46,13.37,47.84626,-54.09684
2020-10-18 19:29:01+00:00,143.3432,13.4,13.37,47.84626,-54.09684
2020-10-18 19:39:01+00:00,150.4482,13.4,13.37,47.84626,-54.09684
2020-10-18 19:49:01+00:00,153.4115,13.4,13.37,47.84626,-54.09684
2020-10-18 19:59:01+00:00,154.1999,13.4,13.37,47.84626,-54.09684
2020-10-18 20:09:01+00:00,159.7765,13.4,13.37,47.84626,-54.09684
2020-10-18 20:19:01+00:00,163.0148,13.4,13.13,47.84626,-54.09684
2020-10-18 20:29:01+00:00,163.3698,13.4,13.13,47.84626,-54.09684
2020-10-18 20:39:01+00:00,168.7248,13.39,13.13,47.84626,-54.09684
2020-10-18 20:49:01+00:00,174.5165,13.38,13.13,47.84626,-54.09684
2020-10-18 20:59:01+00:00,178.2465,13.37,13.13,47.84626,-54.09684
2020-10-18 21:09:01+00:00,182.9598,13.36,13.13,47.84626,-54.09684
2020-10-18 21:19:01+00:00,189.7982,13.35,12.89,47.84626,-54.09684
2020-10-18 21:29:01+00:00,196.3465,13.36,12.89,47.84626,-54.09684
2020-10-18 21:39:01+00:00,202.6881,13.36,12.89,47.84626,-54.09684
2020-10-18 21:49:01+00:00,211.9865,13.36,12.89,47.84626,-54.09684
2020-10-18 21:59:01+00:00,219.6414,13.36,12.89,47.84626,-54.09684
2020-10-18 22:09:01+00:00,225.6564,13.37,12.89,47.84626,-54.09684
2020-10-18 22:19:01+00:00,234.9514,13.37,12.81,47.84626,-54.09684
2020-10-18 22:29:01+00:00,245.6097,13.38,12.81,47.84626,-54.09684
2020-10-18 22:39:01+00:00,255.8064,13.37,12.81,47.84626,-54.09684
2020-10-18 22:49:01+00:00,265.7931,13.37,12.81,47.84626,-54.09684
2020-10-18 22:59:01+00:00,276.3814,13.37,12.81,47.84626,-54.09684
2020-10-18 23:09:01+00:00,289.8813,13.38,12.81,47.84626,-54.09684
2020-10-18 23:19:01+00:00,302.558,13.37,12.81,47.84626,-54.09684
2020-10-18 23:29:01+00:00,312.9413,13.36,12.81,47.84626,-54.09684
2020-10-18 23:39:01+00:00,319.603,13.37,12.81,47.84626,-54.09684
2020-10-18 23:49:01+00:00,326.9297,13.38,12.81,47.84626,-54.09684
2020-10-18 23:59:01+00:00,334.2747,13.38,12.81,47.84626,-54.09684
